Terminal Aerodrome Forecast
Issued by NWS State College, PA

Home | Current Version | Previous Version | Text Only | Print | Product List | Glossary On
Versions: 1 2 3 4 5 6 7 8 9 10 11 12 13 14 15 16 17 18 19 20 21 22 23 24 25 26 27 28 29 30 31 32 33 34 35 36 37 38 39 40 41 42 43 44 45 46 47 48
000
FTUS41 KCTP 230312 AAA
TAFIPT
TAF AMD
KIPT 230312Z 2303/2324 VRB03KT P6SM SCT050
     FM230900 09003KT 4SM BR BKN250
     FM231500 25005KT P6SM BKN050
     FM231900 24005KT P6SM VCSH BKN050=

USA.gov is the U.S. government's official web portal to all federal, state and local government web resources and services.